Погода в Штате Пинанг

Малайзия     5°21′13″N   100°20′37″E
темп.,
°C
ветер,
м/с
пор.,
м/с
влажн.,
%
обл.,
%
осадки,
мм/ч
давл.,
гПа
погр.,
м
18 апреля, вс
вс1823:00+29зсз337196 0.1 1013584
02:00+28ссз227293 1.4 1012466
05:00+28ссв227275 0.1 1011512
08:00+27ссв1273100 0.1 1012501
11:00+28всв017099 0.0 1014636
14:00+29зюз2266100 0.0 1011768
17:00+29з3366100 0.0 1009653
20:00+29зсз4470100 0.0 1010525
19 апреля, пн
пн1923:00+29ссз117013 0.1 1012519
02:00+28ссв227370 0.6 1011304
05:00+28с1172100 4.6 1010204
08:00+28в016974 5.6 1011414
11:00+28в016746 0.1 1012513
14:00+29з236899 0.1 1010834
17:00+29зсз446953 0.0 1008861
20:00+29сз4572100 0.3 1010773
20 апреля, вт
вт2023:00+29сз4571100 2.4 1011609
02:00+28с4476100 3.9 1011467
05:00+28с347699 4.3 1009439
08:00+27с4482100 8.2 1011369
11:00+27с448077 0.4 1012452
14:00+28ссз347362 0.4 1010664
17:00+28сз447558 0.0 1008584
20:00+28ссз337396 0.0 1010522
21 апреля, ср
ср2123:00+28ссз4471100 0.0 1011536
02:00+28ссз347398 0.0 1010516
05:00+28ссв227582 0.0 1009435
08:00+27всв217896 0.1 1010281
11:00+28с2273100 1.5 1012385
14:00+29сз556991 4.4 1010738
17:00+29сз5569100 1.2 1009703
20:00+29ссз4572100 1.2 1010791
22 апреля, чт
чт2223:00+29ссз4474100 0.0 1012776
02:00+28с337991 2.7 1010272
05:00+27ссз3479100 7.3 1009378
08:00+27ссв337898 8.8 1011455
11:00+28ссз3472100 4.0 1012513
14:00+29сз457141 4.1 1010895
17:00+29сз567351 0.8 1008750
20:00+29ссз457291 0.9 1010849